Time,TemperatureF,DewpointF,PressureIn,WindDirection,WindDirectionDegrees,WindSpeedMPH,WindSpeedGustMPH,Humidity,HourlyPrecipIn,Conditions,Clouds,dailyrainin,SoftwareType,DateUTC
2013-06-17 00:02:00,70.0,67.0,-100.00,South,170,0.0,2.0,91,0.00,,,-99.99,,2013-06-17 05:02:00,
2013-06-17 00:12:00,70.0,67.0,-100.00,NNW,335,1.0,2.0,92,0.00,,,-99.99,,2013-06-17 05:12:00,
2013-06-17 00:22:00,69.0,67.0,-100.00,NNW,335,0.0,1.0,92,0.00,,,-99.99,,2013-06-17 05:22:00,
2013-06-17 00:33:00,69.0,67.0,-100.00,NNW,335,0.0,1.0,92,0.00,,,-99.99,,2013-06-17 05:33:00,
2013-06-17 00:44:00,69.0,67.0,-100.00,SE,125,0.0,2.0,93,0.00,,,-99.99,,2013-06-17 05:44:00,
2013-06-17 00:53:00,69.0,67.0,-100.00,ESE,120,1.0,2.0,93,0.00,,,-99.99,,2013-06-17 05:53:00,
2013-06-17 01:02:00,69.0,67.0,-100.00,ESE,120,1.0,2.0,93,0.00,,,-99.99,,2013-06-17 06:02:00,
2013-06-17 01:12:00,68.0,66.0,-100.00,WNW,290,0.0,1.0,93,0.00,,,-99.99,,2013-06-17 06:12:00,
2013-06-17 01:22:00,68.0,66.0,-100.00,SSW,200,1.0,1.0,93,0.00,,,-99.99,,2013-06-17 06:22:00,
2013-06-17 01:33:00,68.0,66.0,-100.00,SSW,200,1.0,1.0,94,0.00,,,-99.99,,2013-06-17 06:33:00,
2013-06-17 01:43:00,68.0,66.0,-100.00,SSW,200,0.0,1.0,94,0.00,,,-99.99,,2013-06-17 06:43:00,
2013-06-17 01:53:00,68.0,66.0,-100.00,WNW,290,0.0,1.0,94,0.00,,,-99.99,,2013-06-17 06:53:00,
2013-06-17 02:02:00,67.0,65.0,-100.00,NW,310,1.0,3.0,94,0.00,,,-99.99,,2013-06-17 07:02:00,
2013-06-17 02:12:00,67.0,65.0,-100.00,NW,310,1.0,3.0,94,0.00,,,-99.99,,2013-06-17 07:12:00,
2013-06-17 02:22:00,67.0,65.0,-100.00,NW,310,0.0,0.0,94,0.00,,,-99.99,,2013-06-17 07:22:00,
2013-06-17 02:33:00,67.0,65.0,-100.00,NW,310,0.0,0.0,94,0.00,,,-99.99,,2013-06-17 07:33:00,
2013-06-17 02:43:00,67.0,65.0,-100.00,NW,320,1.0,2.0,94,0.00,,,-99.99,,2013-06-17 07:43:00,
2013-06-17 02:53:00,67.0,65.0,-100.00,NNW,330,2.0,3.0,94,0.00,,,-99.99,,2013-06-17 07:53:00,
2013-06-17 03:02:00,66.0,65.0,-100.00,NW,310,2.0,4.0,94,0.00,,,-99.99,,2013-06-17 08:02:00,
2013-06-17 03:11:00,66.0,64.0,-100.00,WNW,295,2.0,3.0,94,0.00,,,-99.99,,2013-06-17 08:11:00,
2013-06-17 03:22:00,66.0,64.0,-100.00,WNW,295,1.0,2.0,94,0.00,,,-99.99,,2013-06-17 08:22:00,
2013-06-17 03:34:00,66.0,64.0,-100.00,WNW,295,1.0,2.0,94,0.00,,,-99.99,,2013-06-17 08:34:00,
2013-06-17 03:43:00,66.0,64.0,-100.00,WNW,295,1.0,1.0,94,0.00,,,-99.99,,2013-06-17 08:43:00,
2013-06-17 03:53:00,66.0,64.0,-100.00,WNW,295,0.0,2.0,94,0.00,,,-99.99,,2013-06-17 08:53:00,
2013-06-17 04:02:00,65.0,64.0,-100.00,WNW,295,2.0,2.0,94,0.00,,,-99.99,,2013-06-17 09:02:00,
2013-06-17 04:12:00,65.0,63.0,-100.00,WNW,295,2.0,3.0,94,0.00,,,-99.99,,2013-06-17 09:12:00,
2013-06-17 04:22:00,65.0,63.0,-100.00,West,270,1.0,2.0,94,0.00,,,-99.99,,2013-06-17 09:22:00,
2013-06-17 04:34:00,65.0,63.0,-100.00,West,270,1.0,2.0,94,0.00,,,-99.99,,2013-06-17 09:34:00,
2013-06-17 04:43:00,64.0,63.0,-100.00,SSW,195,0.0,1.0,94,0.00,,,-99.99,,2013-06-17 09:43:00,
2013-06-17 04:52:00,64.0,63.0,-100.00,SSW,195,0.0,1.0,94,0.00,,,-99.99,,2013-06-17 09:52:00,
2013-06-17 05:02:00,65.0,63.0,-100.00,North,355,2.0,3.0,94,0.00,,,-99.99,,2013-06-17 10:02:00,
2013-06-17 05:12:00,65.0,63.0,-100.00,North,355,2.0,3.0,94,0.00,,,-99.99,,2013-06-17 10:12:00,
2013-06-17 05:22:00,65.0,63.0,-100.00,NNW,340,1.0,1.0,94,0.00,,,-99.99,,2013-06-17 10:22:00,
2013-06-17 05:33:00,65.0,63.0,-100.00,NNW,340,0.0,1.0,94,0.00,,,-99.99,,2013-06-17 10:33:00,
2013-06-17 05:43:00,64.0,63.0,-100.00,NNW,340,1.0,1.0,94,0.00,,,-99.99,,2013-06-17 10:43:00,
2013-06-17 05:54:00,64.0,63.0,-100.00,WSW,255,0.0,1.0,94,0.00,,,-99.99,,2013-06-17 10:54:00,
2013-06-17 06:02:00,64.0,63.0,-100.00,WSW,255,0.0,1.0,94,0.00,,,-99.99,,2013-06-17 11:02:00,
2013-06-17 06:12:00,64.0,63.0,-100.00,WSW,255,0.0,1.0,94,0.00,,,-99.99,,2013-06-17 11:12:00,
2013-06-17 06:23:00,64.0,63.0,-100.00,WSW,255,0.0,0.0,94,0.00,,,-99.99,,2013-06-17 11:23:00,
2013-06-17 06:33:00,65.0,64.0,-100.00,WSW,255,0.0,1.0,94,0.00,,,-99.99,,2013-06-17 11:33:00,
2013-06-17 06:43:00,66.0,64.0,-100.00,West,280,1.0,2.0,94,0.00,,,-99.99,,2013-06-17 11:43:00,
2013-06-17 06:53:00,65.0,64.0,-100.00,WNW,285,1.0,4.0,94,0.00,,,-99.99,,2013-06-17 11:53:00,
2013-06-17 07:02:00,66.0,64.0,-100.00,WNW,285,1.0,2.0,94,0.00,,,-99.99,,2013-06-17 12:02:00,
2013-06-17 07:12:00,66.0,64.0,-100.00,WNW,285,0.0,1.0,94,0.00,,,-99.99,,2013-06-17 12:12:00,
2013-06-17 07:22:00,66.0,64.0,-100.00,WNW,285,0.0,1.0,94,0.00,,,-99.99,,2013-06-17 12:22:00,
2013-06-17 07:33:00,67.0,66.0,-100.00,WNW,285,0.0,0.0,94,0.00,,,-99.99,,2013-06-17 12:33:00,
2013-06-17 07:43:00,68.0,67.0,-100.00,WNW,285,0.0,2.0,94,0.00,,,-99.99,,2013-06-17 12:43:00,
2013-06-17 07:53:00,69.0,68.0,-100.00,SW,230,0.0,0.0,94,0.00,,,-99.99,,2013-06-17 12:53:00,
2013-06-17 08:01:00,70.0,68.0,-100.00,SW,230,0.0,1.0,94,0.00,,,-99.99,,2013-06-17 13:01:00,
2013-06-17 08:12:00,71.0,69.0,-100.00,SW,230,0.0,0.0,93,0.00,,,-99.99,,2013-06-17 13:12:00,
2013-06-17 08:22:00,71.0,68.0,-100.00,West,275,0.0,1.0,89,0.00,,,-99.99,,2013-06-17 13:22:00,
2013-06-17 08:32:00,71.0,68.0,-100.00,West,275,0.0,1.0,89,0.00,,,-99.99,,2013-06-17 13:32:00,
2013-06-17 08:43:00,73.0,68.0,-100.00,SW,220,0.0,1.0,84,0.00,,,-99.99,,2013-06-17 13:43:00,
2013-06-17 08:52:00,73.0,66.0,-100.00,North,0,2.0,2.0,79,0.00,,,-99.99,,2013-06-17 13:52:00,
2013-06-17 09:02:00,73.0,66.0,-100.00,NW,315,4.0,6.0,78,0.00,,,-99.99,,2013-06-17 14:02:00,
2013-06-17 09:12:00,72.0,65.0,-100.00,NW,325,7.0,9.0,78,0.00,,,-99.99,,2013-06-17 14:12:00,
2013-06-17 09:22:00,73.0,65.0,-100.00,NW,305,6.0,10.0,77,0.00,,,-99.99,,2013-06-17 14:22:00,
2013-06-17 09:34:00,73.0,65.0,-100.00,NW,305,6.0,10.0,77,0.00,,,-99.99,,2013-06-17 14:34:00,
2013-06-17 09:43:00,75.0,67.0,-100.00,WNW,300,3.0,5.0,76,0.00,,,-99.99,,2013-06-17 14:43:00,
2013-06-17 09:53:00,75.0,67.0,-100.00,WNW,300,3.0,5.0,76,0.00,,,-99.99,,2013-06-17 14:53:00,
2013-06-17 10:02:00,75.0,67.0,-100.00,NW,310,3.0,7.0,75,0.00,,,-99.99,,2013-06-17 15:02:00,
2013-06-17 10:12:00,76.0,67.0,-100.00,NW,310,4.0,6.0,75,0.00,,,-99.99,,2013-06-17 15:12:00,
2013-06-17 10:22:00,76.0,68.0,-100.00,NW,315,4.0,6.0,75,0.00,,,-99.99,,2013-06-17 15:22:00,
2013-06-17 10:33:00,76.0,68.0,-100.00,NW,315,4.0,6.0,75,0.00,,,-99.99,,2013-06-17 15:33:00,
2013-06-17 10:43:00,77.0,68.0,-100.00,WNW,290,4.0,6.0,73,0.00,,,-99.99,,2013-06-17 15:43:00,
2013-06-17 10:52:00,77.0,68.0,-100.00,WNW,290,4.0,6.0,73,0.00,,,-99.99,,2013-06-17 15:52:00,
2013-06-17 11:02:00,78.0,68.0,-100.00,WNW,300,5.0,6.0,72,0.00,,,-99.99,,2013-06-17 16:02:00,
2013-06-17 11:12:00,78.0,68.0,-100.00,WNW,300,5.0,6.0,72,0.00,,,-99.99,,2013-06-17 16:12:00,
2013-06-17 11:22:00,79.0,68.0,-100.00,West,265,3.0,6.0,69,0.00,,,-99.99,,2013-06-17 16:22:00,
2013-06-17 11:33:00,80.0,69.0,-100.00,NW,310,3.0,6.0,68,0.00,,,-99.99,,2013-06-17 16:33:00,
2013-06-17 11:43:00,80.0,68.0,-100.00,West,275,4.0,7.0,67,0.00,,,-99.99,,2013-06-17 16:43:00,
2013-06-17 11:54:00,81.0,68.0,-100.00,WNW,290,4.0,7.0,66,0.00,,,-99.99,,2013-06-17 16:54:00,
2013-06-17 12:02:00,82.0,68.0,-100.00,West,265,4.0,6.0,62,0.00,,,-99.99,,2013-06-17 17:02:00,
2013-06-17 12:12:00,82.0,67.0,-100.00,WNW,290,5.0,7.0,60,0.00,,,-99.99,,2013-06-17 17:12:00,
2013-06-17 12:22:00,83.0,67.0,-100.00,NW,315,5.0,7.0,58,0.00,,,-99.99,,2013-06-17 17:22:00,
2013-06-17 12:33:00,83.0,67.0,-100.00,NW,315,5.0,7.0,58,0.00,,,-99.99,,2013-06-17 17:33:00,
2013-06-17 12:43:00,84.0,66.0,-100.00,NW,315,2.0,4.0,56,0.00,,,-99.99,,2013-06-17 17:43:00,
2013-06-17 12:52:00,85.0,66.0,-100.00,North,5,2.0,3.0,53,0.00,,,-99.99,,2013-06-17 17:52:00,
2013-06-17 13:02:00,83.0,65.0,-100.00,SW,230,4.0,7.0,53,0.00,,,-99.99,,2013-06-17 18:02:00,
2013-06-17 13:12:00,85.0,64.0,-100.00,WNW,300,6.0,7.0,49,0.00,,,-99.99,,2013-06-17 18:12:00,
2013-06-17 13:23:00,85.0,64.0,-100.00,SW,235,3.0,6.0,48,0.00,,,-99.99,,2013-06-17 18:23:00,
2013-06-17 13:33:00,85.0,64.0,-100.00,SW,235,3.0,6.0,48,0.00,,,-99.99,,2013-06-17 18:33:00,
2013-06-17 13:43:00,85.0,63.0,-100.00,West,265,4.0,7.0,47,0.00,,,-99.99,,2013-06-17 18:43:00,
2013-06-17 13:53:00,85.0,63.0,-100.00,West,265,4.0,7.0,47,0.00,,,-99.99,,2013-06-17 18:53:00,
2013-06-17 14:02:00,87.0,64.0,-100.00,WSW,250,2.0,4.0,45,0.00,,,-99.99,,2013-06-17 19:02:00,
2013-06-17 14:11:00,86.0,61.0,-100.00,SW,215,5.0,8.0,43,0.00,,,-99.99,,2013-06-17 19:11:00,
2013-06-17 14:22:00,87.0,62.0,-100.00,NW,320,4.0,6.0,43,0.00,,,-99.99,,2013-06-17 19:22:00,
2013-06-17 14:33:00,87.0,62.0,-100.00,NW,320,4.0,6.0,43,0.00,,,-99.99,,2013-06-17 19:33:00,
2013-06-17 14:43:00,86.0,63.0,-100.00,West,280,3.0,7.0,45,0.00,,,-99.99,,2013-06-17 19:43:00,
2013-06-17 14:53:00,86.0,61.0,-100.00,WSW,245,6.0,9.0,43,0.00,,,-99.99,,2013-06-17 19:53:00,
2013-06-17 15:02:00,87.0,60.0,-100.00,WSW,250,4.0,7.0,40,0.00,,,-99.99,,2013-06-17 20:02:00,
2013-06-17 15:11:00,88.0,62.0,-100.00,West,270,5.0,7.0,41,0.00,,,-99.99,,2013-06-17 20:11:00,
2013-06-17 15:22:00,87.0,62.0,-100.00,South,170,2.0,7.0,43,0.00,,,-99.99,,2013-06-17 20:22:00,
2013-06-17 15:34:00,87.0,62.0,-100.00,South,170,2.0,7.0,43,0.00,,,-99.99,,2013-06-17 20:34:00,
2013-06-17 15:43:00,86.0,59.0,-100.00,West,280,5.0,10.0,39,0.00,,,-99.99,,2013-06-17 20:43:00,
2013-06-17 15:52:00,87.0,60.0,-100.00,SW,215,2.0,7.0,40,0.00,,,-99.99,,2013-06-17 20:52:00,
2013-06-17 16:01:00,87.0,59.0,-100.00,SSW,210,4.0,11.0,39,0.00,,,-99.99,,2013-06-17 21:01:00,
2013-06-17 16:12:00,87.0,60.0,-100.00,SW,230,5.0,9.0,40,0.00,,,-99.99,,2013-06-17 21:12:00,
2013-06-17 16:22:00,88.0,59.0,-100.00,NW,310,6.0,12.0,37,0.00,,,-99.99,,2013-06-17 21:22:00,
2013-06-17 16:33:00,88.0,59.0,-100.00,NW,310,6.0,12.0,37,0.00,,,-99.99,,2013-06-17 21:33:00,
2013-06-17 16:43:00,87.0,61.0,-100.00,WSW,255,4.0,11.0,40,0.00,,,-99.99,,2013-06-17 21:43:00,
2013-06-17 16:52:00,87.0,62.0,-100.00,SSW,210,7.0,9.0,41,0.00,,,-99.99,,2013-06-17 21:52:00,
2013-06-17 17:01:00,87.0,61.0,-100.00,WSW,245,4.0,12.0,40,0.00,,,-99.99,,2013-06-17 22:01:00,
2013-06-17 17:11:00,88.0,62.0,-100.00,WSW,240,6.0,9.0,41,0.00,,,-99.99,,2013-06-17 22:11:00,
2013-06-17 17:22:00,87.0,62.0,-100.00,SW,225,6.0,11.0,42,0.00,,,-99.99,,2013-06-17 22:22:00,
2013-06-17 17:33:00,87.0,61.0,-100.00,WSW,240,9.0,12.0,41,0.00,,,-99.99,,2013-06-17 22:33:00,
2013-06-17 17:43:00,87.0,62.0,-100.00,WSW,240,6.0,10.0,42,0.00,,,-99.99,,2013-06-17 22:43:00,
2013-06-17 17:53:00,87.0,62.0,-100.00,West,260,6.0,9.0,42,0.00,,,-99.99,,2013-06-17 22:53:00,
2013-06-17 18:02:00,88.0,63.0,-100.00,WSW,245,6.0,9.0,43,0.00,,,-99.99,,2013-06-17 23:02:00,
2013-06-17 18:11:00,88.0,63.0,-100.00,West,260,3.0,11.0,43,0.00,,,-99.99,,2013-06-17 23:11:00,
2013-06-17 18:22:00,87.0,63.0,-100.00,SW,235,7.0,10.0,43,0.00,,,-99.99,,2013-06-17 23:22:00,
2013-06-17 18:32:00,87.0,62.0,-100.00,West,260,6.0,9.0,43,0.00,,,-99.99,,2013-06-17 23:32:00,
2013-06-17 18:42:00,87.0,62.0,-100.00,West,265,6.0,8.0,43,0.00,,,-99.99,,2013-06-17 23:42:00,
2013-06-17 18:53:00,87.0,62.0,-100.00,WSW,255,4.0,10.0,44,0.00,,,-99.99,,2013-06-17 23:53:00,
2013-06-17 19:01:00,87.0,62.0,-100.00,West,270,4.0,7.0,43,0.00,,,-99.99,,2013-06-18 00:01:00,
2013-06-17 19:12:00,87.0,62.0,-100.00,WSW,245,3.0,6.0,42,0.00,,,-99.99,,2013-06-18 00:12:00,
2013-06-17 19:22:00,87.0,60.0,-100.00,West,260,5.0,7.0,39,0.00,,,-99.99,,2013-06-18 00:22:00,
2013-06-17 19:33:00,87.0,59.0,-100.00,SW,235,4.0,7.0,38,0.00,,,-99.99,,2013-06-18 00:33:00,
2013-06-17 19:43:00,87.0,59.0,-100.00,WSW,255,4.0,7.0,39,0.00,,,-99.99,,2013-06-18 00:43:00,
2013-06-17 19:52:00,86.0,59.0,-100.00,WSW,250,4.0,9.0,40,0.00,,,-99.99,,2013-06-18 00:52:00,
2013-06-17 20:01:00,85.0,59.0,-100.00,SW,235,3.0,7.0,41,0.00,,,-99.99,,2013-06-18 01:01:00,
2013-06-17 20:11:00,84.0,61.0,-100.00,SW,225,2.0,3.0,45,0.00,,,-99.99,,2013-06-18 01:11:00,
2013-06-17 20:23:00,83.0,63.0,-100.00,SSW,210,2.0,4.0,51,0.00,,,-99.99,,2013-06-18 01:23:00,
2013-06-17 20:34:00,83.0,64.0,-100.00,SSE,160,2.0,3.0,52,0.00,,,-99.99,,2013-06-18 01:34:00,
2013-06-17 20:53:00,82.0,65.0,-100.00,SSW,210,1.0,3.0,56,0.00,,,-99.99,,2013-06-18 01:53:00,
2013-06-17 21:02:00,81.0,66.0,-100.00,West,280,0.0,2.0,59,0.00,,,-99.99,,2013-06-18 02:02:00,
2013-06-17 21:11:00,80.0,66.0,-100.00,SW,215,0.0,1.0,61,0.00,,,-99.99,,2013-06-18 02:11:00,
2013-06-17 21:22:00,80.0,67.0,-100.00,SW,220,0.0,1.0,64,0.00,,,-99.99,,2013-06-18 02:22:00,
2013-06-17 21:34:00,79.0,66.0,-100.00,SW,220,0.0,1.0,65,0.00,,,-99.99,,2013-06-18 02:34:00,
2013-06-17 21:43:00,78.0,67.0,-100.00,West,260,2.0,3.0,67,0.00,,,-99.99,,2013-06-18 02:43:00,
2013-06-17 21:53:00,76.0,68.0,-100.00,NNW,330,2.0,3.0,75,0.00,,,-99.99,,2013-06-18 02:53:00,
2013-06-17 22:02:00,76.0,68.0,-100.00,NNW,330,2.0,3.0,75,0.00,,,-99.99,,2013-06-18 03:02:00,
2013-06-17 22:12:00,75.0,67.0,-100.00,NNW,345,1.0,2.0,77,0.00,,,-99.99,,2013-06-18 03:12:00,
2013-06-17 22:23:00,74.0,68.0,-100.00,NNW,335,2.0,2.0,79,0.00,,,-99.99,,2013-06-18 03:23:00,
2013-06-17 22:34:00,74.0,67.0,-100.00,NW,305,2.0,3.0,81,0.00,,,-99.99,,2013-06-18 03:34:00,
2013-06-17 22:43:00,73.0,67.0,-100.00,NW,310,0.0,2.0,81,0.00,,,-99.99,,2013-06-18 03:43:00,
2013-06-17 22:53:00,73.0,67.0,-100.00,NW,310,0.0,0.0,81,0.00,,,-99.99,,2013-06-18 03:53:00,
2013-06-17 23:02:00,73.0,67.0,-100.00,NW,310,0.0,0.0,81,0.00,,,-99.99,,2013-06-18 04:02:00,
2013-06-17 23:12:00,73.0,68.0,-100.00,NW,310,1.0,1.0,85,0.00,,,-99.99,,2013-06-18 04:12:00,
2013-06-17 23:23:00,72.0,68.0,-100.00,NW,310,1.0,1.0,87,0.00,,,-99.99,,2013-06-18 04:23:00,
2013-06-17 23:34:00,71.0,68.0,-100.00,NW,310,1.0,1.0,88,0.00,,,-99.99,,2013-06-18 04:34:00,
2013-06-17 23:43:00,71.0,67.0,-100.00,NW,310,1.0,1.0,89,0.00,,,-99.99,,2013-06-18 04:43:00,
2013-06-17 23:53:00,70.0,67.0,-100.00,NNW,330,1.0,2.0,90,0.00,,,-99.99,,2013-06-18 04:53:00,